STARLINK-31853, 59933

Orbit data source: Space-Track

STARLINK-31853, 59933 is a payload satellite owned by SpaceX/Seattle (US) in LEO that was launched on Sat, 01 Jun 2024 UTC via an FALCON 9 launch vehicle from the Air Force Eastern Test Range (AFETR). Payload-class satellites include a variety of spacecraft equipped with specific instruments for various scientific and technological missions. These include communications satellites like Starlink; space stations such as the ISS; scientific satellites like the Hubble; Earth observation satellites from companies like Planet Labs, Umbra, and HawkEye 360; GPS; miniature CubeSats for education and research; and military/defense satellites.

Loading next visibility...
Identifier
59933, 2024-106M
Orbit
LEO
Last TLE update
8 hours ago
Origin
Manufacturer
SpaceX/Seattle
Mission
Operational spacecraft
Bus & Motor
STARLINK V2M, Unknown motor
Mass
730 kg wet, ~700 kg dry
Launch date (UTC)
2024-06-01 (1 year ago)
Launch vehicle
FALCON 9
Launch site
Air Force Eastern Test Range (AFETR)
Object type
Payload
Rocket body
Debris
Shape & HBR
Unknown
Radar Cross Section
Large (>1 m²)

Expand to show TLE details & history

TLE from 8 hours ago
0 STARLINK-31853
1 59933U 24106M   25182.08932015  .00003684  00000-0  14332-3 0  9995
2 59933  43.0045 313.4428 0001841 266.8636  93.2005 15.27580386 62038
Epoch: 2025-07-01T02:08Z
TLE epoch observation values (Epoch: 2025-07-01T02:08:37.26Z)
Latitude
-0.00004°
Longitude
1.89772°
Altitude
482.895 km
Speed
7.626 km/s
True Right ascension
20h 53m 46s
True Declination
0° 00' 00"
Sunlit
Object was in full shadow at epoch
Visualization orbit readout
Latitude
37.26366°
Longitude
125.71491°
Altitude
486.05 km
Speed
7.627 km/s
Apparent Right ascension
07h 29m 11s
Apparent Declination
0° 26' 47"
Sunlit
Object is in daylight
Visualization observer readout
Local Sidereal Time
22:08:38
Azimuth
52.127° ENE
Elevation
-35.711°
Doppler factor
1
Orbital elements
Apogee altitude
486.256 km
Perigee altitude
483.729 km
Semi-major axis
6,863.129 km
Eccentricity
0.00018
Inclination
43.0045°
RAAN
313.4428°
Arg. of periapsis
266.8636°
True anomaly
Unknown
Mean anomaly
93.2005°
Eccentric anomaly
Unknown
Mean motion
3.81733 °/min
Orbital period
94.31 mins
BSTAR
0.00014332
Loading maneuver chart data...
Loading SW <> Apogee altitude chart data...
Loading historical data...
Loading historical data...
Loading historical data...
Loading historical data...
Loading historical data...
Loading historical data...
Loading historical data...

STARLINK-31853 Visibility forecast

Observer location: undefined°, undefined°

Span
Click to sort rows by Start time (UTC) header in descending order
Start Az.
Max El. time (UTC)
Max El. Az.
Max El.
End time (UTC)
End Az.
5 mins2025-07-01 11:45:11.291Z197.832° SSW2025-07-01 11:48:11.291Z133.142° SE22.775°2025-07-01 11:50:11.291Z95.957° ESE
5 mins2025-07-01 13:24:11.291Z255.673° W2025-07-01 13:26:11.291Z284.911° WNW44.344°2025-07-01 13:29:11.291Z70.63° E
6 mins2025-07-01 15:03:11.291Z290.184° WNW2025-07-01 15:05:11.291Z337.78° N37.042°2025-07-01 15:09:11.291Z78.017° E
6 mins2025-07-01 16:42:11.291Z288.597° WNW2025-07-01 16:45:11.291Z104.926° ESE42.372°2025-07-01 16:48:11.291Z108.411° ESE
4 mins2025-07-01 18:22:11.291Z241.946° WSW2025-07-01 18:23:11.291Z218.375° SW21.53°2025-07-01 18:26:11.291Z161.91° S
|